Flag for U.S.A. Weather past 2 weeks in New Haven, Connecticut, U.S.A.

Now
22 °F

Clear.


Feels Like: 22 °F
Forecast: 7 / 29 °F
Wind: No wind

Location: Tweed-New Haven Airport

Current Time: Feb 28, 2015 at 8:21:12 PM

Latest Report: Feb 28, 2015 at 7:53 PM


Visibility: 10 mi

Pressure: 30.73 "Hg

Humidity: 66%

Dew point: 12 °F

Location of New HavenLocation

Historic Weather in New Haven — Graph

°F

New Haven temperature yesterday

Maximum temperature yesterday: 27 °F (at 1:53 PM)
Minimum temperature yesterday: 16 °F (at 3:53 AM)
Average temperature yesterday: 21 °F

Past Weeks' High & Low Weather Summary

 TemperatureHumidityPressure
High37 °F (Feb 22, 12:53 PM)100% (Feb 21, 9:53 PM)30.79 "Hg (Feb 21, 9:53 PM)
Low-2 °F (Feb 21, 4:53 AM)23% (Feb 16, 3:53 PM)29.39 "Hg (Feb 15, 12:53 AM)
Average18 °F60%30.07 "Hg
* Reported Feb 13 6:53 PM — Feb 28 6:53 PM, New Haven, Weather by CustomWeather, © 2015

Note: Actual official high and low records may vary slightly from our data, if they occured in-between our weather recording intervals... More about our weather records

Advertising

New Haven weather history for previous 24 hours

 ConditionsComfort  
Time TempWeatherWind HumidityBarometerVisibility
6:53 PM
Sat, Feb 28
25 °FClear.No wind60%30.73 "Hg10 mi
5:53 PM27 °FPassing clouds.8 mph53%30.73 "Hg10 mi
4:53 PM27 °FPassing clouds.9 mph51%30.72 "Hg10 mi
3:53 PM27 °FPassing clouds.10 mph55%30.72 "Hg10 mi
2:53 PM29 °FSunny.7 mph33%30.72 "Hg10 mi
1:53 PM26 °FSunny.5 mph44%30.73 "Hg10 mi
12:53 PM25 °FSunny.7 mph40%30.76 "Hg10 mi
11:53 AM23 °FScattered clouds.6 mph40%30.77 "Hg10 mi
10:53 AM21 °FSunny.6 mph45%30.78 "Hg10 mi
9:53 AM19 °FSunny.10 mph47%30.78 "Hg10 mi
8:53 AM16 °FSunny.7 mph51%30.79 "Hg10 mi
7:53 AM14 °FSunny.7 mph56%30.77 "Hg10 mi
6:53 AM12 °FSunny.8 mph58%30.74 "Hg10 mi
5:53 AM12 °FPassing clouds.6 mph58%30.71 "Hg10 mi
4:53 AM12 °FClear.7 mph56%30.69 "Hg10 mi
3:53 AM12 °FClear.6 mph56%30.67 "Hg10 mi
2:53 AM13 °FClear.6 mph54%30.63 "Hg10 mi
1:53 AM13 °FClear.7 mph54%30.63 "Hg10 mi
12:53 AM16 °FClear.8 mph49%30.62 "Hg10 mi
11:53 PM
Fri, Feb 27
18 °FClear.10 mph45%30.59 "Hg10 mi
10:53 PM19 °FClear.7 mph45%30.58 "Hg10 mi
9:53 PM20 °FClear.5 mph43%30.55 "Hg10 mi
8:53 PM22 °FClear.8 mph40%30.52 "Hg10 mi
Weather by CustomWeather, © 2015

See weather overviewHow to use our weather pages